Date and Time,Battery Voltage,CR10 Temperature,Wind Direction 10 Minutes,Wind Speed 10 Minutes,Wind Gust 10 Minutes,Hourly Average Direction,Hourly Average Speed,Hourly Maximum Gust,Hourly Gust Time,Hourly Gust Direction,Last Minute Average Temperature,Total Hourly Rain,Average RH over previous minute,Maximum Hourly Air Temperature,Minimum Hourly Air Temperature,Maximum Hourly Rainfall Rate,Time of Rainfall
01/11/2015 00:00,,,,,,,,,,,,,,,,,
01/11/2015 01:00,,,,,,,,,,,,,,,,,
01/11/2015 02:00,,,,,,,,,,,,,,,,,
01/11/2015 03:00,,,,,,,,,,,,,,,,,
01/11/2015 04:00,,,,,,,,,,,,,,,,,
01/11/2015 05:00,,,,,,,,,,,,,,,,,
01/11/2015 06:00,,,,,,,,,,,,,,,,,
01/11/2015 07:00,,,,,,,,,,,,,,,,,
01/11/2015 08:00,,,,,,,,,,,,,,,,,
01/11/2015 09:00,,,,,,,,,,,,,,,,,
01/11/2015 10:00,,,,,,,,,,,,,,,,,
01/11/2015 11:00,,,,,,,,,,,,,,,,,
01/11/2015 12:00,,,,,,,,,,,,,,,,,
01/11/2015 13:00,,,,,,,,,,,,,,,,,
01/11/2015 14:00,,,,,,,,,,,,,,,,,
01/11/2015 15:00,,,,,,,,,,,,,,,,,
01/11/2015 16:00,,,,,,,,,,,,,,,,,
01/11/2015 17:00,,,,,,,,,,,,,,,,,
01/11/2015 18:00,,,,,,,,,,,,,,,,,
01/11/2015 19:00,,,,,,,,,,,,,,,,,
01/11/2015 20:00,,,,,,,,,,,,,,,,,
01/11/2015 21:00,,,,,,,,,,,,,,,,,
01/11/2015 22:00,,,,,,,,,,,,,,,,,
01/11/2015 23:00,,,,,,,,,,,,,,,,,
02/11/2015 00:00,,,,,,,,,,,,,,,,,
02/11/2015 01:00,,,,,,,,,,,,,,,,,
02/11/2015 02:00,,,,,,,,,,,,,,,,,
02/11/2015 03:00,,,,,,,,,,,,,,,,,
02/11/2015 04:00,,,,,,,,,,,,,,,,,
02/11/2015 05:00,,,,,,,,,,,,,,,,,
02/11/2015 06:00,,,,,,,,,,,,,,,,,
02/11/2015 07:00,,,,,,,,,,,,,,,,,
02/11/2015 08:00,,,,,,,,,,,,,,,,,
02/11/2015 09:00,,,,,,,,,,,,,,,,,
02/11/2015 10:00,,,,,,,,,,,,,,,,,
02/11/2015 11:00,,,,,,,,,,,,,,,,,
02/11/2015 12:00,,,,,,,,,,,,,,,,,
02/11/2015 13:00,,,,,,,,,,,,,,,,,
02/11/2015 14:00,,,,,,,,,,,,,,,,,
02/11/2015 15:00,,,,,,,,,,,,,,,,,
02/11/2015 16:00,,,,,,,,,,,,,,,,,
02/11/2015 17:00,,,,,,,,,,,,,,,,,
02/11/2015 18:00,,,,,,,,,,,,,,,,,
02/11/2015 19:00,,,,,,,,,,,,,,,,,
02/11/2015 20:00,,,,,,,,,,,,,,,,,
02/11/2015 21:00,,,,,,,,,,,,,,,,,
02/11/2015 22:00,,,,,,,,,,,,,,,,,
02/11/2015 23:00,,,,,,,,,,,,,,,,,
03/11/2015 00:00,,,,,,,,,,,,,,,,,
03/11/2015 01:00,,,,,,,,,,,,,,,,,
03/11/2015 02:00,,,,,,,,,,,,,,,,,
03/11/2015 03:00,,,,,,,,,,,,,,,,,
03/11/2015 04:00,,,,,,,,,,,,,,,,,
03/11/2015 05:00,,,,,,,,,,,,,,,,,
03/11/2015 06:00,,,,,,,,,,,,,,,,,
03/11/2015 07:00,,,,,,,,,,,,,,,,,
03/11/2015 08:00,,,,,,,,,,,,,,,,,
03/11/2015 09:00,,,,,,,,,,,,,,,,,
03/11/2015 10:00,,,,,,,,,,,,,,,,,
03/11/2015 11:00,,,,,,,,,,,,,,,,,
03/11/2015 12:00,,,,,,,,,,,,,,,,,
03/11/2015 13:00,,,,,,,,,,,,,,,,,
03/11/2015 14:00,13.97,18.67,279.9,4.558,7.1,270,2.961,7.1,13:55,279.1,13.61,0,80,13.73,13.25,0,13:01
03/11/2015 15:00,13.95,18.71,277.5,4.508,7.33,290,4.992,8.93,14:24,293.6,13.68,0,80.2,13.88,13.39,0,14:01
03/11/2015 16:00,13.96,18.76,265.3,3.866,5.95,270,4.138,8.32,15:17,285.6,13.84,0,80.7,14,13.62,0,15:01
03/11/2015 17:00,13.96,18.79,270.7,4.537,6.944,270,4.681,7.42,16:29,278.1,13.74,0,81.4,14.01,13.68,0,16:01
03/11/2015 18:00,13.96,18.83,294.1,4.906,6.527,280,4.788,8.13,17:33,276.6,13.71,0,83.7,13.88,13.63,0,17:01
03/11/2015 12:00,13.94,19.47,286.3,4.524,8.39,280,4.524,8.39,11:59,283,13.11,0,81.9,13.13,13.11,0,11:57
03/11/2015 13:00,13.96,18.66,252.5,2.034,4.635,280,4.129,9.7,12:07,278.5,13.21,0,82.3,13.39,12.91,0,12:01
03/11/2015 14:00,13.97,18.67,279.9,4.558,7.1,270,2.961,7.1,13:55,279.1,13.61,0,80,13.73,13.25,0,13:01
03/11/2015 15:00,13.95,18.71,277.5,4.508,7.33,290,4.992,8.93,14:24,293.6,13.68,0,80.2,13.88,13.39,0,14:01
03/11/2015 16:00,13.96,18.76,265.3,3.866,5.95,270,4.138,8.32,15:17,285.6,13.84,0,80.7,14,13.62,0,15:01
03/11/2015 17:00,13.96,18.79,270.7,4.537,6.944,270,4.681,7.42,16:29,278.1,13.74,0,81.4,14.01,13.68,0,16:01
03/11/2015 18:00,13.96,18.83,294.1,4.906,6.527,280,4.788,8.13,17:33,276.6,13.71,0,83.7,13.88,13.63,0,17:01
03/11/2015 19:00,13.95,19.27,292.5,3.99,5.34,290,3.262,6.591,18:02,287.2,13.93,0,83.7,14.05,13.7,0,18:01
03/11/2015 20:00,13.95,18.88,303.1,3.159,5.02,290,3.122,6.687,19:16,305.4,13.82,0,84.3,14.17,13.82,0,19:01
03/11/2015 21:00,13.96,18.86,300.7,1.597,3.288,310,2.044,4.763,20:48,342.1,13.63,0,86,13.91,13.6,0,20:01
03/11/2015 22:00,13.96,18.83,228.2,3.245,4.346,310,2.416,4.346,21:04,300.6,13.2,0,87.8,13.62,13.16,0,21:01
03/11/2015 23:00,13.96,18.81,264.5,4.664,5.853,270,3.646,6.046,22:44,266.3,13.4,0,87.1,13.49,13.09,0,22:01
04/11/2015 00:00,13.96,18.81,246.2,2.624,3.416,250,3.402,6.142,23:13,241.1,12.63,0,89.5,13.33,12.62,0,23:01
04/11/2015 01:00,13.96,18.78,261.6,4.652,5.982,240,3.914,5.982,00:59,265.6,12.86,0,90.7,12.98,12.59,0,00:01
04/11/2015 02:00,13.95,18.81,255.5,2.534,4.026,260,3.759,6.078,01:10,268,12.66,0,91.6,12.9,12.46,0,01:01
04/11/2015 03:00,13.96,18.81,202.6,3.695,5.308,240,3.279,5.308,02:56,207.4,12.64,0.43,91.5,12.7,12.43,1.29,02:34
04/11/2015 04:00,13.96,18.81,212.5,4.292,6.302,220,3.831,6.399,03:40,219.7,12.26,0.43,93.1,12.62,12.02,1.29,03:01
04/11/2015 05:00,13.96,18.81,284.9,1.805,4.09,210,1.725,5.597,04:04,175.1,12.31,0.215,92.7,12.44,12.14,1.29,04:49
04/11/2015 06:00,13.96,18.81,104.4,1.014,2.198,100,2.176,5.597,05:05,273.2,12.11,0.86,94.6,12.3,11.85,2.58,05:34
04/11/2015 07:00,13.96,18.81,256.2,2.1,4.571,260,1.422,4.571,07:00,257.4,12.34,2.365,94.8,12.48,12.05,5.16,06:41
04/11/2015 08:00,13.96,18.81,78.8,3.418,4.282,80,1.42,4.282,08:00,85.1,12.44,1.935,95,12.44,12.14,5.16,07:52
04/11/2015 09:00,13.97,18.81,95.9,2.819,4.539,50,2.963,5.148,08:42,45.87,12.89,1.075,95.6,12.89,12.46,3.87,08:01
04/11/2015 10:00,13.95,18.81,110.6,3.669,6.976,70,3.1,6.976,10:00,106.2,13.61,0.215,94.9,13.64,12.87,1.29,09:12
04/11/2015 11:00,13.95,18.88,69.53,4.356,5.725,80,4.282,8.74,10:39,80.1,13.92,0,88,14.23,13.68,0,10:01
04/11/2015 12:00,13.95,18.88,61.83,6.366,8.64,60,5.21,8.64,11:55,62.86,13.95,0,85.7,14.18,13.79,0,11:01
04/11/2015 13:00,13.95,18.91,65.22,6.742,10.09,60,6.219,10.09,12:59,59.63,14.44,0,80.9,14.74,14,0,12:01
04/11/2015 14:00,13.95,18.93,40.78,7.05,10.63,60,6.265,10.92,13:34,46.25,14.88,0,78.9,14.88,14.47,0,13:01
04/11/2015 15:00,13.95,19,15.91,5.484,7.91,30,5.898,11.18,14:18,29.18,14.73,0,79.9,15.08,14.73,0,14:01
04/11/2015 16:00,13.95,19.05,21.37,6.325,9.8,20,6.276,10.54,15:10,22.69,14.63,0,82.8,14.81,14.56,0,15:01
04/11/2015 17:00,13.95,19.12,16.48,5.381,8.58,20,5.057,8.87,16:09,12.79,14.35,0,85.7,14.66,14.29,0,16:01
04/11/2015 18:00,13.94,19.17,36.33,6.237,9.96,30,5.801,10.54,17:47,46.71,14.27,0,86.5,14.32,14.24,0,17:01
04/11/2015 19:00,13.95,19.17,39.21,5.002,8.19,40,5.468,10.47,18:33,48.86,14.27,0,85.2,14.29,14.25,0,18:01
04/11/2015 20:00,13.95,19.15,34.02,7.05,11.37,40,6.176,11.82,19:42,45.01,14.07,0,86.5,14.29,14.06,0,19:01
04/11/2015 21:00,13.95,19.15,30.67,3.916,6.912,40,5.254,12.33,20:04,30.89,13.98,0,87.8,14.08,13.98,0,20:01
04/11/2015 22:00,13.95,19.15,40.21,6.099,9.83,30,5.411,9.83,21:56,38.45,14.1,0,88.8,14.12,13.96,0,21:01
04/11/2015 23:00,13.95,19.15,36.67,6.039,9.12,40,5.849,10.76,22:10,36.11,14.33,0,88.9,14.36,14.1,0,22:01
05/11/2015 00:00,13.95,19.15,26.21,3.679,6.655,30,3.875,7.87,23:44,23.04,14.33,0,89.1,14.33,14.23,0,23:01
05/11/2015 01:00,13.95,19.17,21.32,5.634,8.64,20,5.158,9.38,00:48,16.31,14.44,0,89.2,14.44,14.28,0,00:01
05/11/2015 02:00,13.95,19.17,9.46,3.893,5.918,20,4.745,8.16,01:33,31.65,14.63,0,89.5,14.64,14.44,0,01:01
05/11/2015 03:00,13.95,19.17,354.2,4.891,7.49,350,4.041,7.49,03:00,353,14.33,0.43,93,14.66,14.32,1.29,02:26
05/11/2015 04:00,13.95,19.2,357.5,5.679,8.29,360,5.137,8.29,03:19,357.8,14.3,0.43,93.5,14.32,14.17,2.58,03:35
05/11/2015 05:00,13.94,19.2,350.1,6.058,8.58,360,6.224,10.92,04:39,355.5,14.33,0,92,14.36,14.26,0,04:01
05/11/2015 06:00,13.95,19.2,355.4,7.62,13.13,350,6.462,13.13,05:53,359.2,14.63,0,89.3,14.71,14.31,0,05:01
05/11/2015 07:00,13.95,19.2,353.2,7.18,13.36,350,6.144,13.65,06:50,351.3,14.69,0,88.5,14.74,14.6,0,06:01
05/11/2015 08:00,13.94,19.17,356.2,7.92,13.29,350,7.69,13.65,07:30,355.4,15.13,0,87.3,15.13,14.69,0,07:01
05/11/2015 09:00,13.95,19.17,2.162,10.19,16.82,360,8.88,17.46,08:29,2.191,15.49,0,86.4,15.52,15.12,0,08:01
05/11/2015 10:00,13.95,19.15,0.5,9.3,16.5,10,10.07,18.52,09:30,5.86,15.56,0,89.1,15.6,15.43,0,09:01
05/11/2015 11:00,13.95,19.15,15.24,9.24,15.25,10,9.34,17.4,10:47,8.51,15.27,0,92.1,15.74,15.25,0,10:01
05/11/2015 12:00,13.95,19.17,22.15,10.68,19.8,20,9.58,19.8,11:59,25.64,16.16,0,82.3,16.19,15.27,0,11:01
05/11/2015 13:00,13.95,19.22,9.98,9.03,14.74,20,9.8,17.91,12:01,9.75,15.81,0,82.4,16.14,15.74,0,12:01
05/11/2015 14:00,13.95,19.25,26.71,10.94,17.91,20,11.2,20.57,13:31,19.68,15.62,0,79.9,15.85,15.58,0,13:01
05/11/2015 15:00,13.95,19.27,18.22,8.42,13.81,20,8.59,18.04,14:02,20.64,14.64,0.645,87.7,15.64,14.61,1.29,14:28
05/11/2015 16:00,13.95,19.27,7.02,7.58,11.21,10,8.37,17.49,15:32,6.277,14.66,0.43,90.2,14.87,14.56,1.29,15:01
05/11/2015 17:00,13.94,19.27,4.764,7.4,12.14,10,8.1,14.16,16:14,5.364,13.84,1.29,93.2,14.69,13.8,3.87,16:42
05/11/2015 18:00,13.95,19.27,13.09,11.52,19.06,10,10.17,19.99,17:45,25.29,14.94,0.645,89.2,14.96,13.86,3.87,17:15
05/11/2015 19:00,13.95,19.22,22.25,10.63,18.33,20,11.94,22.94,18:26,17.24,15.28,0,90.3,15.28,14.96,0,18:01
05/11/2015 20:00,13.95,19.22,40.54,12.74,19.61,30,10.73,19.8,19:41,47.33,15.56,0,90.3,15.61,15.28,0,19:01
05/11/2015 21:00,13.95,19.2,37.23,9.69,15.79,40,9.94,19.03,20:01,39.9,15.64,0,90.7,15.8,15.46,0,20:01
05/11/2015 22:00,13.95,19.2,57.71,12.22,19.8,50,10.55,19.8,21:59,57.43,15.73,0,89.7,15.84,15.64,0,21:01
05/11/2015 23:00,13.95,19.15,58.54,8.33,13.61,60,10.39,19.03,22:08,55.75,15.25,0,88.2,15.73,15.25,0,22:01
06/11/2015 00:00,13.95,19.15,47.43,10.05,15.06,50,9.15,15.63,23:30,48.31,15.16,0,87.2,15.25,15.03,0,23:01
06/11/2015 01:00,13.95,19.15,45.6,8.63,14,50,10,17.81,00:39,45.28,15.1,0,86.5,15.31,15.1,0,00:01
06/11/2015 02:00,13.95,19.12,45.01,7.37,11.3,50,8.12,14.32,01:06,50.43,14.95,0,86.6,15.12,14.94,0,01:01
06/11/2015 03:00,13.95,19.12,49.17,8.21,11.79,50,7.8,14.64,02:39,52.53,14.83,0,87.5,14.94,14.79,0,02:01
06/11/2015 04:00,13.95,19.12,48.5,8.7,13.61,60,8.44,15.73,03:18,57.56,14.72,0,86.2,14.84,14.72,0,03:01
06/11/2015 05:00,13.95,19.1,59.75,11.83,18.07,50,9.05,18.07,04:53,50.81,14.57,0,83.1,14.77,14.57,0,04:01
06/11/2015 06:00,13.95,19.05,37.92,7.41,13.84,40,7.86,19.03,05:31,45.08,14.36,0,87.1,14.56,14.34,0,05:01
06/11/2015 07:00,13.95,19.05,33.58,8.19,13.45,30,7.65,14.45,06:07,37.76,14.42,0,87.6,14.46,14.31,0,06:01
06/11/2015 08:00,13.95,19.03,35.67,9.85,14.35,30,8.78,20.16,07:05,42.74,14.61,0,84.9,14.61,14.39,0,07:01
06/11/2015 09:00,13.95,19,23.37,9.62,15.35,20,9.1,19.32,08:33,21.93,14.69,0,85.4,14.69,14.57,0,08:01
06/11/2015 10:00,13.96,18.95,23.27,8.83,16.02,20,9.78,18.94,09:15,18.43,14.56,0.43,89,14.72,14.46,2.58,09:41
06/11/2015 11:00,13.95,18.95,14.31,8.82,14.51,20,8.89,16.53,10:01,23.94,14.91,0.645,92.1,14.91,14.56,2.58,10:55
06/11/2015 12:00,13.95,18.95,16.51,8.97,16.05,20,10.82,19.1,11:14,25.06,15.97,0,91,15.97,14.92,1.29,11:01
06/11/2015 13:00,13.95,18.98,29.68,10.14,17.72,20,10.11,18.52,12:38,27.08,17.14,0,89.3,17.14,15.94,0,12:01
06/11/2015 14:00,13.95,19.03,42.05,10.93,19.99,40,10.96,21.66,13:23,37.21,17.68,0,88.5,17.69,17.15,0,13:01
06/11/2015 15:00,13.95,19.08,44.6,11.53,18.84,40,11.52,21.25,14:35,47.73,17.92,0,87,17.96,17.69,0,14:01
06/11/2015 16:00,13.94,19.12,42.14,11.27,21.34,50,11.73,22.62,15:10,57.59,17.6,0,90.2,17.96,17.42,0,15:01
06/11/2015 17:00,13.95,19.2,47.25,11.73,20.09,50,11.28,21.53,16:02,46.82,17.72,0,86.8,17.73,17.61,0,16:01
06/11/2015 18:00,13.95,19.25,52.69,12.19,22.56,50,12.39,22.78,17:48,56.34,17.55,0,87.2,17.73,17.55,0,17:01
06/11/2015 19:00,13.95,19.3,54.92,12.03,19.77,50,12.12,21.89,18:41,55.29,17.17,0,89.2,17.55,17.17,0,18:01
06/11/2015 20:00,13.94,19.34,53.62,11.55,19.35,60,11.24,20.54,19:41,57.69,17.08,0,89.3,17.17,17.08,0,19:01
06/11/2015 21:00,13.93,19.52,49.47,9.91,14.03,50,10.31,17.2,20:01,53.2,16.96,0,89.9,17.1,16.88,0,20:01
06/11/2015 22:00,13.93,19.57,50.45,9.43,13.39,50,9.55,16.18,21:12,54.59,16.79,0,88.1,17.02,16.79,0,21:01
06/11/2015 23:00,13.93,19.54,50.61,11.06,16.11,50,11.04,17.33,22:23,48.7,16.33,0,87.3,16.76,16.32,0,22:01
07/11/2015 00:00,13.93,19.54,42.01,9.36,14.61,40,8.66,15.15,23:12,49.29,15.71,0,87.6,16.33,15.71,0,23:01
07/11/2015 01:00,13.94,19.54,43.59,6.467,10.15,40,7.43,14.03,00:04,31.74,15.11,0,88.2,15.7,15.11,0,00:01
07/11/2015 02:00,13.93,19.54,43.85,6.734,9.8,40,7.11,11.88,01:09,44.75,14.87,0,88.3,15.13,14.84,0,01:01
07/11/2015 03:00,13.94,19.52,34.35,8.32,15.76,40,7.56,15.76,02:52,32.93,15.22,0,88,15.22,14.84,0,02:01
07/11/2015 04:00,13.93,19.49,21.98,7.09,12.36,30,7.49,13.42,03:17,32.94,15.22,0,90.5,15.22,15.12,0,03:01
07/11/2015 05:00,13.95,19.49,1.982,6.794,11.47,10,6.917,12.33,04:27,12.12,15.25,0.86,93.6,15.38,15.19,3.87,04:47
07/11/2015 06:00,13.94,19.49,9.58,10.27,15.67,10,9.85,18.62,05:23,6.402,16.1,0,93.9,16.1,15.26,0,05:01
07/11/2015 07:00,13.94,19.47,32.37,11.75,19.45,20,11.89,24.45,06:46,25.3,16.88,0,89.5,16.89,16.11,0,06:01
07/11/2015 08:00,13.94,19.47,24.54,12.89,26.34,30,12.5,26.34,07:59,17.94,17.13,0,84.3,17.26,16.89,0,07:01
07/11/2015 09:00,13.94,19.44,34.19,15.5,28.04,30,13.61,28.04,08:54,33.6,17.35,0,81.6,17.41,17.03,0,08:01
07/11/2015 10:00,13.94,19.42,35.46,18.5,30.77,40,15.55,30.77,09:51,40.23,17.25,0,82.7,17.54,17.23,0,09:01
07/11/2015 11:00,13.93,19.37,35.34,17.68,35.23,30,17.47,35.23,10:54,40.39,17.38,0.215,83,17.51,17.13,1.29,10:54
07/11/2015 12:00,13.94,19.34,40.28,17.64,31.8,40,18,31.8,11:52,40.61,17.09,0.645,86.6,17.4,16.81,1.29,11:01
07/11/2015 13:00,13.95,19.3,38.6,15.17,23.2,40,17.83,32.5,12:18,40.94,16.97,0.645,87.6,17.34,16.77,2.58,12:47
07/11/2015 14:00,13.94,19.27,46.58,18.36,27.79,40,17.84,32.08,13:34,53.35,17.49,0,84.4,17.49,16.92,0,13:01
07/11/2015 15:00,13.95,19.27,54.51,16.53,26.57,50,18.58,32.18,14:22,55.9,17.47,0,83.9,17.64,17.29,0,14:01
07/11/2015 16:00,13.94,19.27,62.83,13.54,23.33,60,14.74,27.11,15:02,45.18,17.33,0,82.1,17.48,17.1,0,15:01
07/11/2015 17:00,13.94,19.3,66.23,12.11,19.61,70,12.07,20.28,16:50,73,16.71,0,79.1,17.32,16.71,0,16:01
07/11/2015 18:00,13.94,19.3,69.38,11.48,16.98,70,11.95,18.81,17:15,66.85,15.85,0,79.5,16.69,15.85,0,17:01
07/11/2015 19:00,13.94,19.27,70.8,7.92,11.82,70,9.86,17.88,18:11,70.2,15.09,0,79.4,15.84,15.09,0,18:01
07/11/2015 20:00,13.94,19.25,56.96,11.06,15.41,60,9.85,16.98,19:38,66.9,14.36,0,80.6,15.12,14.34,0,19:01
07/11/2015 21:00,13.95,19.12,69.33,13.21,19.32,70,11.91,19.32,21:00,63.56,13.86,0,78.7,14.34,13.85,0,20:01
07/11/2015 22:00,13.95,19,73.6,9.75,15.12,70,10.4,18.33,21:09,77.4,13.23,0,80.1,13.92,13.23,0,21:01
07/11/2015 23:00,13.95,18.93,61.02,6.556,10.15,80,8.37,16.18,22:04,74.1,12.73,0,81.2,13.23,12.73,0,22:01
08/11/2015 00:00,13.95,18.91,44.17,4.49,7.36,60,4.158,7.78,23:32,56.79,12.22,0,84.5,12.72,12.22,0,23:01
08/11/2015 01:00,13.96,18.83,57.98,6.542,8.58,60,6.542,9.8,00:50,58.74,11.96,0,85.3,12.21,11.88,0,00:01
08/11/2015 02:00,13.96,18.76,43.45,5.018,8.35,60,5.372,8.35,01:52,40.78,11.74,0,85.6,11.99,11.68,0,01:01
08/11/2015 03:00,13.96,18.71,350.4,2.145,3.577,30,2.46,6.655,02:10,46.41,11.68,0,84.9,11.9,11.61,0,02:01
08/11/2015 04:00,13.96,18.67,322.3,3.057,4.154,360,2.847,6.431,03:33,359.7,11.26,0,86.8,11.65,11.26,0,03:01
08/11/2015 05:00,13.96,18.62,347.1,5.356,7.3,310,3.707,7.3,04:58,355.9,10.73,0,89.7,11.28,10.68,0,04:01
08/11/2015 06:00,13.97,18.55,322.4,3.277,4.475,340,3.991,7.55,05:01,348.9,11.26,0,89.3,11.26,10.76,0,05:01
08/11/2015 07:00,13.97,18.48,299.8,4.973,7.75,310,4.631,7.75,06:51,302,10.74,0,92.1,11.23,10.64,0,06:01
08/11/2015 08:00,13.97,18.41,318.8,5.139,6.847,300,4.711,7.84,07:25,296.6,11.69,0,92.2,11.69,10.75,0,07:01
08/11/2015 09:00,13.97,18.36,0.205,7.91,13.32,340,5.727,13.32,08:56,358,13.47,0,87.1,13.5,11.68,0,08:01
08/11/2015 10:00,13.97,18.34,4.694,9.28,13.65,360,8.88,15.44,09:12,359.2,14.21,0,84.4,14.21,13.49,0,09:01
08/11/2015 11:00,13.97,18.31,18.37,6.528,10.05,360,7.4,15.15,10:18,352.8,15.16,0,83.5,15.16,14.23,0,10:01
08/11/2015 12:00,13.97,18.34,9.76,9.53,17.46,10,8.14,17.46,11:56,3.458,15.36,0,87.7,15.54,15.15,0,11:01
08/11/2015 13:00,13.97,18.38,20,11.66,20.67,20,10.01,20.67,12:57,19.05,15.62,0,86.6,15.73,15.35,0,12:01
08/11/2015 14:00,13.97,18.43,20.07,12.47,19.13,20,12.67,22.85,13:16,17.91,15.65,0,89.3,15.65,15.5,0,13:01
08/11/2015 15:00,13.97,18.48,23.06,13.02,22.91,20,13.73,25.38,14:29,23.29,15.97,0,88,15.97,15.66,0,14:01
08/11/2015 16:00,13.97,18.52,27.74,10.99,18.55,20,12.22,24.07,15:42,15.8,16.38,0,86.2,16.38,15.97,0,15:01
08/11/2015 17:00,13.97,18.57,45.34,12.77,20.03,30,13.97,29.81,16:40,52.62,16.65,0,83,16.79,16.38,0,16:01
08/11/2015 18:00,13.97,18.59,40.07,11.72,17.81,50,13.07,24.2,17:30,34.03,16.77,0,81,16.86,16.66,0,17:01
08/11/2015 19:00,13.96,18.67,46.68,14.25,21.92,40,13.31,25.16,18:26,42.19,16.62,0,83.8,16.81,16.58,0,18:01
08/11/2015 20:00,13.96,18.67,50.9,13.17,22.98,50,13.21,23.43,19:13,46.98,16.44,0,86.3,16.6,16.35,0,19:01
08/11/2015 21:00,13.96,18.71,53.47,12.79,19.93,60,12.31,20.76,20:02,43.69,16.63,0,83.6,16.64,16.42,0,20:01
08/11/2015 22:00,13.96,18.76,50.58,13.52,21.89,60,12.93,22.18,21:41,55.87,15.93,0,84.6,16.67,15.93,0,21:01
08/11/2015 23:00,13.95,18.76,64.53,13.58,20.28,60,12.71,20.89,22:25,63.43,15.41,0,85.1,15.88,15.41,0,22:01
09/11/2015 00:00,13.96,18.74,61.32,11.16,17.62,60,11.53,19,23:28,62.52,15.02,0,84.2,15.39,15.02,0,23:01
09/11/2015 01:00,13.96,18.71,87.9,14.56,22.46,70,13.11,22.46,01:00,87,14.65,0,74.5,15.11,14.65,0,00:01
09/11/2015 02:00,13.96,18.71,81.5,11.89,16.11,80,13.13,23.81,01:20,82.8,13.54,0,74,14.63,13.54,0,01:01
09/11/2015 03:00,13.97,18.69,83.6,13.38,19.99,80,11.25,20.73,02:50,78.5,12.62,0,71.2,13.52,12.62,0,02:01
09/11/2015 04:00,13.97,18.57,63.08,8.48,12.81,70,9.88,16.79,03:22,65.13,11.61,0,77.4,12.62,11.6,0,03:01
09/11/2015 05:00,13.97,18.48,54.67,10.12,15.76,60,8.75,15.76,04:57,51.39,10.9,0,83.9,11.58,10.88,0,04:01
09/11/2015 06:00,13.97,18.32,55.14,10.83,16.53,50,10.81,18.42,05:49,53.96,10.79,0,80.2,10.89,10.72,0,05:01
09/11/2015 07:00,13.98,18.13,60.2,12.36,21.66,60,11.79,21.66,06:57,63.54,10.91,0,76.8,10.93,10.68,0,06:01
09/11/2015 08:00,13.98,17.89,51.89,11.57,16.72,50,12.37,21.25,07:32,46.96,11.3,0,74.8,11.3,10.9,0,07:01
09/11/2015 09:00,14,17.72,51.7,13.77,21.25,50,12.01,21.25,08:52,55.88,11.92,0,73.5,11.92,11.3,0,08:01
09/11/2015 10:00,14,17.58,56.3,13.94,23.52,50,13.78,25.77,09:48,53.07,13.16,0,70.9,13.16,11.93,0,09:01
09/11/2015 11:00,14,17.44,60.35,18.34,27.85,60,16.38,28.97,10:24,52.88,14.24,0,66.75,14.24,13.22,0,10:01
09/11/2015 12:00,14,17.34,62.14,16.55,25.8,60,17.58,31.44,11:07,55.68,14.46,0,66.65,14.46,14.26,0,11:01
09/11/2015 13:00,14,17.3,59.39,18.63,28.24,60,17.68,31.41,12:26,74.3,14.88,0,67.2,14.88,14.47,0,12:01
09/11/2015 14:00,14,17.32,61.8,15.66,22.43,60,15.9,28.88,13:28,63.93,15.09,0,67.57,15.11,14.86,0,13:01
09/11/2015 15:00,14,17.37,58.84,13.63,22.66,60,14.62,26.15,14:50,65.64,15.08,0,70,15.18,15.07,0,14:01
09/11/2015 16:00,14,17.44,50.7,17.05,26.25,50,15.34,27.59,15:16,63.61,14.83,0,74,15.1,14.83,0,15:01
09/11/2015 17:00,14,17.44,55.09,17,30.32,50,17.52,30.32,16:56,61.87,14.72,0,75.8,14.83,14.71,0,16:01
09/11/2015 18:00,13.99,17.44,52.75,15.84,27.88,50,17.37,29.52,17:43,49.9,14.82,0,78.3,14.82,14.7,0,17:01
09/11/2015 19:00,14,17.49,60.89,15.58,27.66,60,14.13,27.92,18:06,48.43,14.95,0,79.4,14.95,14.82,0,18:01
09/11/2015 20:00,14,17.51,56.68,16.8,28.4,60,16.89,29.13,19:32,58.75,14.91,0,81,14.95,14.88,0,19:01
09/11/2015 21:00,14,17.53,62.52,12.66,21.95,60,15.34,30.58,20:08,51.63,14.84,0,83,14.95,14.84,0,20:01
09/11/2015 22:00,14,17.61,62.62,14.96,24.93,60,14.7,25.06,21:49,59.32,14.93,0,84.2,14.95,14.84,0,21:01
09/11/2015 23:00,13.99,17.63,57.46,15.33,21.92,60,14.69,25.22,22:41,62.4,14.98,0,84.4,15.01,14.92,0,22:01
10/11/2015 00:00,13.99,17.68,61.94,14.27,25.41,60,14.17,25.41,00:00,65.29,15.12,0,83.9,15.12,14.97,0,23:01
10/11/2015 01:00,13.99,17.72,60.95,15.02,23.17,60,14.56,25.51,00:01,65.59,15.3,0,83.5,15.31,15.14,0,00:01
10/11/2015 02:00,13.98,17.8,57.15,12.62,19.77,50,13.05,22.98,01:19,52.88,15.3,0,85.2,15.34,15.25,0,01:01
10/11/2015 03:00,13.98,17.87,55.28,13.96,21.69,50,13.8,25.67,02:44,45.56,15.43,0,86.3,15.44,15.27,0,02:01
10/11/2015 04:00,13.98,17.91,71.1,17.35,23.14,70,14.86,23.91,03:40,71.2,15.61,0,86.3,15.63,15.44,0,03:01
10/11/2015 05:00,13.98,17.94,61.27,14.65,20.28,60,13.8,22.08,04:31,67.66,15.6,0,86.6,15.63,15.57,0,04:01
10/11/2015 06:00,13.98,18.01,54.93,10.32,16.85,60,12.36,23.68,05:09,62.63,15.46,0,87.8,15.64,15.46,0,05:01
10/11/2015 07:00,13.98,18.08,61.86,12.52,19,60,12.93,21.82,06:12,61.23,15.32,0,90.9,15.46,15.24,0,06:01
10/11/2015 08:00,13.98,18.13,53.87,15.23,21.73,50,12.53,21.73,07:58,61.13,15.64,0,88,15.65,15.32,0,07:01
10/11/2015 09:00,13.98,18.18,57.04,12.92,20.03,60,12.88,20.48,08:22,57.46,15.88,0,85.9,15.88,15.63,0,08:01
10/11/2015 10:00,13.97,18.22,55.6,13.36,23.3,50,12.95,23.36,09:22,49.57,16.06,0,84.1,16.06,15.89,0,09:01
10/11/2015 11:00,13.97,18.25,57.42,13.65,22.01,60,14.6,24.32,10:36,60.9,16.19,0,82.8,16.23,16.06,0,10:01
10/11/2015 12:00,13.97,18.29,54.95,13.48,21.21,60,13.82,25.22,11:29,57.32,16.45,0,81.4,16.49,16.2,0,11:01
10/11/2015 13:00,13.97,18.34,51.07,16.22,21.95,50,14.93,26.44,12:19,50.13,16.15,0,83,16.54,16.11,0,12:01
10/11/2015 14:00,13.97,18.38,53.69,15.96,26.09,50,14.37,26.09,13:56,51.63,15.79,0,82.9,16.19,15.76,0,13:01
10/11/2015 15:00,13.97,18.41,52.3,14.19,22.24,50,14.89,25.16,14:10,47.47,15.19,0,84.8,15.77,15.16,0,14:01
10/11/2015 16:00,13.97,18.45,58.71,11.99,19.58,50,12.13,21.31,15:12,52.43,15.03,0,84.5,15.19,15.02,0,15:01
10/11/2015 17:00,13.97,18.48,65.53,14.3,22.3,60,13.14,23.01,16:46,61.89,14.9,0,84.8,15.03,14.89,0,16:01
10/11/2015 18:00,13.97,18.43,55.84,11.37,19.48,60,12.55,20.48,17:41,62.34,14.74,0,85.6,14.89,14.74,0,17:01
10/11/2015 19:00,13.97,18.43,61.69,13.38,20.99,60,11.87,22.34,18:40,61.9,14.77,0,85.6,14.82,14.74,0,18:01
10/11/2015 20:00,13.97,18.43,50.95,11.49,16.56,60,11.83,19.03,19:10,57.33,14.62,0,85.2,14.85,14.62,0,19:01
10/11/2015 21:00,13.97,18.41,58.81,11.44,19.71,60,12.17,19.8,20:20,72,14.51,0,84.8,14.63,14.5,0,20:01
10/11/2015 22:00,13.97,18.41,51.9,8.65,15.02,70,9.76,18.81,21:05,63.23,14.49,0,84.7,14.52,14.45,0,21:01
10/11/2015 23:00,13.97,18.41,59.23,11.59,16.66,60,10.63,18.33,22:09,43.56,14.46,0,84.6,14.48,14.42,0,22:01
11/11/2015 00:00,13.97,18.38,60.38,9.81,14.7,60,10.68,19.42,23:04,62.17,14.07,0,87.4,14.47,14.07,0,23:01
11/11/2015 01:00,13.97,18.41,56.79,8.26,12.17,50,8.49,14.48,00:40,49.08,14.1,0,84.2,14.1,13.95,0,00:01
11/11/2015 02:00,13.97,18.41,52.77,9.74,14.19,50,9.24,15.28,01:22,50.61,14.41,0,76,14.43,14.11,0,01:01
11/11/2015 03:00,13.97,18.36,53.15,7.95,14.45,60,8.78,14.58,02:33,52.45,14.37,0,74.7,14.45,14.37,0,02:01
11/11/2015 04:00,13.97,18.34,50.23,9.43,13.58,50,9.91,16.47,03:13,44.39,14.42,0,73.9,14.42,14.36,0,03:01
11/11/2015 05:00,13.97,18.31,55.98,9.25,14.58,50,9.27,18.07,04:06,45.51,14.52,0,72.6,14.53,14.41,0,04:01
11/11/2015 06:00,13.97,18.29,54.33,9.77,15.35,50,9.74,18.49,05:45,55.68,14.56,0,70.6,14.6,14.45,0,05:01
11/11/2015 07:00,13.97,18.25,49.46,9.53,16.11,50,9.68,16.6,06:03,50.3,14.39,0,72.1,14.55,14.37,0,06:01
11/11/2015 08:00,13.98,18.22,46.74,9.69,15.22,50,9.74,18.1,07:14,53.1,14.39,0,73,14.5,14.38,0,07:01
11/11/2015 09:00,13.98,18.2,48.65,10.29,15.12,50,10.57,19.42,08:08,37.91,14.55,0,72.3,14.55,14.39,0,08:01
11/11/2015 10:00,13.98,18.13,56.61,14.26,22.08,50,12.71,23.17,09:24,50.36,14.88,0,68.58,14.93,14.55,0,09:01
11/11/2015 11:00,13.98,18.08,52.36,9.85,15.89,50,11.87,21.41,10:27,49.39,15.22,0,66.64,15.24,14.8,0,10:01
11/11/2015 12:00,13.98,18.06,61.01,12.61,20.19,60,12.66,25.51,11:17,50.29,15.1,0,68.41,15.18,14.88,0,11:01
11/11/2015 13:00,13.98,18.06,61.66,11.1,19.64,60,13.11,22.08,12:23,49.05,15.25,0,69,15.31,14.96,0,12:01
11/11/2015 14:00,13.98,18.03,53.69,14.39,22.21,60,14.24,24,13:09,56.26,15.32,0,67.23,15.4,15.14,0,13:01
11/11/2015 15:00,13.98,18.06,48.63,13.09,18.94,50,13.07,22.27,14:28,57.08,15.1,0,70.1,15.38,15.09,0,14:01